EN

Hourly Weather Otynevychi

Today, 3 March, Wednesday

Time Temperature Precipitation Wind Pressure Humidity
00:00 +1°C° 0 mm 3 mps 749 mmHg 90%
01:00 +1°C° 0 mm 3 mps 749 mmHg 91%
02:00 +1°C° 0 mm 2 mps 748 mmHg 93%
03:00 +1°C° 0 mm 2 mps 748 mmHg 93%
04:00 -1°C° 0 mm 2 mps 748 mmHg 94%
05:00 -1°C° 0 mm 2 mps 748 mmHg 94%
06:00 -1°C° 0 mm 2 mps 748 mmHg 94%
07:00 -1°C° 0 mm 2 mps 748 mmHg 94%
08:00 +1°C° 0 mm 2 mps 748 mmHg 95%
09:00 +2°C° 0 mm 2 mps 748 mmHg 90%
10:00 +4°C° 0 mm 2 mps 748 mmHg 86%
11:00 +5°C° 0 mm 2 mps 748 mmHg 82%
12:00 +6°C° 0 mm 2 mps 748 mmHg 78%
13:00 +7°C° 0 mm 2 mps 747 mmHg 74%
14:00 +8°C° 0 mm 2 mps 747 mmHg 70%
15:00 +9°C° 0 mm 1 mps 746 mmHg 72%
16:00 +8°C° 0 mm 1 mps 746 mmHg 75%
17:00 +8°C° 0 mm 1 mps 745 mmHg 78%
18:00 +7°C° 0 mm 1 mps 745 mmHg 80%
19:00 +6°C° 0 mm 1 mps 745 mmHg 82%
20:00 +5°C° 0 mm 1 mps 744 mmHg 84%
21:00 +5°C° 0 mm 1 mps 744 mmHg 84%
22:00 +3°C° 0 mm 2 mps 743 mmHg 85%
23:00 +3°C° 0 mm 2 mps 743 mmHg 85%

Tomorrow, 4 March, Thursday

Time Temperature Precipitation Wind Pressure Humidity
00:00 +3°C° 0 mm 2 mps 743 mmHg 85%
01:00 +3°C° 0 mm 2 mps 742 mmHg 84%
02:00 +2°C° 0 mm 2 mps 742 mmHg 84%
03:00 +2°C° 0 mm 2 mps 741 mmHg 84%
04:00 +2°C° 0 mm 2 mps 740 mmHg 84%
05:00 +2°C° 0 mm 2 mps 740 mmHg 85%
06:00 +2°C° 0 mm 3 mps 739 mmHg 83%
07:00 +2°C° 0 mm 3 mps 739 mmHg 81%
08:00 +3°C° 0 mm 4 mps 739 mmHg 79%
09:00 +3°C° 0 mm 5 mps 738 mmHg 72%
10:00 +5°C° 0 mm 6 mps 738 mmHg 65%
11:00 +8°C° 0 mm 6 mps 737 mmHg 58%
12:00 +9°C° 0 mm 6 mps 737 mmHg 55%
13:00 +10°C° 0 mm 7 mps 736 mmHg 53%
14:00 +11°C° 0 mm 7 mps 736 mmHg 51%
15:00 +10°C° 0 mm 6 mps 735 mmHg 54%
16:00 +9°C° 0 mm 6 mps 735 mmHg 58%
17:00 +9°C° 0 mm 5 mps 734 mmHg 62%
18:00 +7°C° 0 mm 5 mps 735 mmHg 67%
19:00 +6°C° 0 mm 4 mps 735 mmHg 72%
20:00 +5°C° 0 mm 4 mps 735 mmHg 77%
21:00 +5°C° 0 mm 4 mps 735 mmHg 78%
22:00 +5°C° 0 mm 4 mps 734 mmHg 79%
23:00 +5°C° 0 mm 4 mps 734 mmHg 79%

Day after tomorrow, 5 March, Friday

Time Temperature Precipitation Wind Pressure Humidity
00:00 +5°C° 0.1 mm 3 mps 734 mmHg 83%
01:00 +4°C° 0.1 mm 3 mps 734 mmHg 87%
02:00 +5°C° 0.1 mm 2 mps 734 mmHg 90%
03:00 +5°C° 0.5 mm 2 mps 734 mmHg 92%
04:00 +3°C° 0.5 mm 3 mps 733 mmHg 94%
05:00 +2°C° 0.5 mm 3 mps 733 mmHg 95%
06:00 +2°C° 1 mm 3 mps 733 mmHg 96%
07:00 +1°C° 1 mm 3 mps 733 mmHg 96%
08:00 -1°C° 1 mm 4 mps 733 mmHg 96%
09:00 -1°C° 0.9 mm 4 mps 734 mmHg 97%
10:00 0°C° 0.9 mm 3 mps 734 mmHg 97%
11:00 0°C° 0.9 mm 3 mps 734 mmHg 97%
12:00 -2°C° 1.1 mm 4 mps 735 mmHg 97%
13:00 -2°C° 1.1 mm 4 mps 735 mmHg 97%
14:00 -2°C° 1.1 mm 4 mps 736 mmHg 96%
15:00 -2°C° 0.2 mm 4 mps 736 mmHg 92%
16:00 -1°C° 0.2 mm 3 mps 737 mmHg 88%
17:00 -1°C° 0.2 mm 3 mps 737 mmHg 84%
18:00 -1°C° 0.1 mm 3 mps 738 mmHg 84%
19:00 -2°C° 0.1 mm 3 mps 739 mmHg 84%
20:00 -2°C° 0.1 mm 2 mps 739 mmHg 84%
21:00 -3°C° 0 mm 2 mps 740 mmHg 84%
22:00 -4°C° 0 mm 2 mps 740 mmHg 84%
23:00 -4°C° 0 mm 2 mps 741 mmHg 83%

6 March, Saturday

Time Temperature Precipitation Wind Pressure Humidity
00:00 -4°C° 0 mm 2 mps 741 mmHg 83%
01:00 -5°C° 0 mm 2 mps 742 mmHg 83%
02:00 -5°C° 0 mm 2 mps 742 mmHg 82%
03:00 -5°C° 0 mm 2 mps 742 mmHg 83%
04:00 -5°C° 0 mm 2 mps 743 mmHg 84%
05:00 -5°C° 0 mm 2 mps 743 mmHg 84%
06:00 -5°C° 0 mm 2 mps 743 mmHg 83%
07:00 -5°C° 0 mm 2 mps 744 mmHg 83%
08:00 -5°C° 0 mm 2 mps 744 mmHg 82%
09:00 -4°C° 0 mm 2 mps 745 mmHg 75%
10:00 -4°C° 0 mm 3 mps 745 mmHg 69%
11:00 -2°C° 0 mm 3 mps 745 mmHg 62%
12:00 -1°C° 0 mm 3 mps 746 mmHg 59%
13:00 -1°C° 0 mm 3 mps 746 mmHg 55%
14:00 0°C° 0 mm 3 mps 746 mmHg 52%
15:00 0°C° 0 mm 3 mps 746 mmHg 53%
16:00 0°C° 0 mm 3 mps 746 mmHg 55%
17:00 +1°C° 0 mm 2 mps 746 mmHg 56%
18:00 -1°C° 0 mm 2 mps 746 mmHg 61%
19:00 -2°C° 0 mm 2 mps 746 mmHg 66%
20:00 -3°C° 0 mm 2 mps 747 mmHg 71%
21:00 -3°C° 0 mm 2 mps 747 mmHg 73%
22:00 -3°C° 0 mm 2 mps 747 mmHg 75%
23:00 -4°C° 0 mm 2 mps 747 mmHg 77%

7 March, Sunday

Time Temperature Precipitation Wind Pressure Humidity
00:00 -4°C° 0 mm 2 mps 747 mmHg 78%
01:00 -4°C° 0 mm 2 mps 747 mmHg 79%
02:00 -5°C° 0 mm 3 mps 747 mmHg 80%
03:00 -5°C° 0 mm 3 mps 746 mmHg 77%
04:00 -5°C° 0 mm 3 mps 746 mmHg 74%
05:00 -5°C° 0 mm 4 mps 745 mmHg 71%
06:00 -5°C° 0 mm 4 mps 745 mmHg 69%
07:00 -6°C° 0 mm 5 mps 744 mmHg 66%
08:00 -5°C° 0 mm 5 mps 744 mmHg 64%
09:00 -4°C° 0 mm 6 mps 744 mmHg 60%
10:00 -3°C° 0 mm 6 mps 743 mmHg 56%
11:00 -1°C° 0 mm 7 mps 743 mmHg 52%
12:00 -1°C° 0 mm 7 mps 743 mmHg 50%
13:00 0°C° 0 mm 8 mps 742 mmHg 49%
14:00 +1°C° 0 mm 8 mps 741 mmHg 48%
15:00 0°C° 0 mm 7 mps 741 mmHg 51%
16:00 +1°C° 0 mm 6 mps 740 mmHg 54%
17:00 +1°C° 0 mm 6 mps 740 mmHg 58%
18:00 0°C° 0 mm 5 mps 740 mmHg 62%
19:00 -1°C° 0 mm 5 mps 740 mmHg 67%
20:00 -4°C° 0 mm 5 mps 740 mmHg 72%
21:00 -4°C° 0 mm 5 mps 740 mmHg 72%
22:00 -4°C° 0 mm 5 mps 740 mmHg 71%
23:00 -4°C° 0 mm 5 mps 740 mmHg 71%

8 March, Monday

Time Temperature Precipitation Wind Pressure Humidity
00:00 -3°C° 0 mm 4 mps 740 mmHg 73%
01:00 -3°C° 0 mm 4 mps 740 mmHg 75%
02:00 -2°C° 0 mm 3 mps 739 mmHg 77%
03:00 -2°C° 0 mm 3 mps 739 mmHg 77%
04:00 -4°C° 0 mm 3 mps 739 mmHg 77%
05:00 -4°C° 0 mm 3 mps 739 mmHg 78%
06:00 -2°C° 0 mm 3 mps 739 mmHg 77%
07:00 -2°C° 0 mm 3 mps 739 mmHg 76%
08:00 -2°C° 0 mm 3 mps 739 mmHg 75%
09:00 -2°C° 0 mm 4 mps 738 mmHg 73%
10:00 -1°C° 0 mm 4 mps 738 mmHg 70%
11:00 0°C° 0 mm 4 mps 738 mmHg 68%
12:00 0°C° 0 mm 5 mps 738 mmHg 66%
13:00 +1°C° 0 mm 5 mps 738 mmHg 64%
14:00 +1°C° 0 mm 5 mps 738 mmHg 61%
15:00 +1°C° 0 mm 5 mps 738 mmHg 64%
16:00 +1°C° 0 mm 4 mps 737 mmHg 67%
17:00 0°C° 0 mm 4 mps 737 mmHg 70%
18:00 -1°C° 0 mm 4 mps 738 mmHg 75%
19:00 0°C° 0 mm 3 mps 738 mmHg 79%
20:00 -1°C° 0 mm 3 mps 738 mmHg 84%
21:00 -2°C° 0.1 mm 3 mps 739 mmHg 87%
22:00 -3°C° 0.1 mm 4 mps 739 mmHg 89%
23:00 -4°C° 0.1 mm 4 mps 740 mmHg 92%
Show more

We Need Your Consent

Meteoprog and our Service Providers may store and access personal data such as cookies, device identifiers or other similar technologies on your device and process such data to personalise content and ads, as well as provide social media features and to analyse the traffic.

  • Store and/or access information on your device

    Cookies, device identifiers or other information can be stored or accessed on your device for the purposes indicated above.

  • Personalised ads and content, ad and content measurement, audience insights, and products development

    Ads and content can be personalised based on a profile. More data can be added to better personalise ads and content. Ad and content performance can be measured. Insights about the audience who saw the ads and content can be derived. Such data can be used to develop or improve user’s experience, systems and software.

By clicking ‘I Agree’ you will allow the use of indicated cookies, device identifiers, web beacons or other similar technologies. Your settings can be changed in the browser on your device.

For certain purposes, legitimate interests may be relied on, rather than consent. You can read more about this in our Privacy and Cookie Policy.